星链-31668 (STARLINK-31668 )

导读 | 豆包AI

STARLINK-31668是美国太空探索技术公司SpaceX于2024年4月23日发射的星链Starlink低轨通信卫星,属于星链第二代星座,具备激光星间链路能力,可实现卫星间直接通信,助力构建覆盖全球的高速卫星互联网,为地面网络覆盖不足地区提供宽带服务,也为后续星链直连手机业务持续扩容,进一步扩大星链星座的全球服务覆盖范围。

基本信息
目录编号:
59580
目录名称:
STARLINK-31668
国际标识:
2024-076S
轨道中心:
EARTH
卫星名称:
星链-31668
卫星全名:
星链-31668 (STARLINK-31668 )
卫星状态:
在轨 (已飞行738 天)
发射日期:
2024-04-23 UTC
国别 :
美国 (US)
星等 :
--
轨道信息
数据来源 国际轨道数据 AOE轨道数据
星历时间 2026-04-30T21:52:05+0800
11小时前
查看轨道信息
2026-04-29T17:00:00+0800
1天前
查看轨道信息
半长轴 6861.231km 6861.221km
偏心率 0.0002086 0.0001211
轨道倾角 43.004° 43.003°
近地点辐角 266.527° 253.472°
升交点赤经 75.504° 82.300°
平近点角 93.534° 324.182°
近地点 481.662km 482.253km
远地点 484.526km 483.915km
周期 94.268分钟 94.267分钟
每日圈数 15.275652 15.275686
详细信息
固有亮度:
5
最大亮度:
1.5
卫星平台:
Starlink v2.0 mini
覆盖范围:
全球
运营商:
太空探索技术公司
运营商所在国:
美国
制造商(研发单位):
太空探索技术公司
制造商所在国:
美国
使用方式:
暂无
卫星简介
星链(Starlink)计划是由太空探索技术公司(SpaceX)提出的一个巨型低轨卫星互联网星座项目,计划在2019年至2024年间在太空搭建由约1.2万颗卫星组成的“星链”网络,其中1584颗将部署在地球上空550千米处的近地轨道,并从2020年开始工作。该卫星仍在工作。
2D轨道图
3D轨道图
轨道高度分析图
轨道倾角分析图
轨道综合分析图
查看轨道综合分析图